| time (UTC) | temp C | wind direction | speed KPH | gust KPH | rain 1hr cm | rain 24hr cm | rain mn cm | humidity % | barometer mb |
| 20260504013019 | 12 | 270 | 0.0 | 1.6 | 0.00 | 0.05 | 0.00 | 55 | 1014.7 |
| 20260504011513 | 12 | 360 | 0.0 | 0.0 | 0.00 | 0.05 | 0.00 | 53 | 1014.7 |
| 20260504010012 | 13 | 360 | 0.0 | 0.0 | 0.00 | 0.05 | 0.00 | 51 | 1014.8 |
| 20260504004510 | 13 | 360 | 0.0 | 1.6 | 0.00 | 0.05 | 0.00 | 49 | 1014.7 |
| 20260504003013 | 14 | 360 | 0.0 | 3.2 | 0.00 | 0.05 | 0.00 | 46 | 1015.0 |
| 20260504001509 | 15 | 360 | 0.0 | 4.8 | 0.00 | 0.05 | 0.00 | 44 | 1015.0 |
| 20260504000009 | 15 | 360 | 0.0 | 3.2 | 0.00 | 0.05 | 0.00 | 42 | 1015.1 |
| 20260503234508 | 15 | 360 | 0.0 | 4.8 | 0.00 | 0.05 | 0.00 | 41 | 1014.8 |
| 20260503233006 | 15 | 254 | 1.6 | 12.9 | 0.00 | 0.05 | 0.00 | 40 | 1014.9 |
| 20260503231505 | 16 | 360 | 3.2 | 17.7 | 0.00 | 0.05 | 0.00 | 39 | 1015.1 |
| 20260503230004 | 16 | 276 | 1.6 | 11.3 | 0.00 | 0.05 | 0.00 | 40 | 1015.3 |
| 20260503224502 | 16 | 360 | 0.0 | 3.2 | 0.00 | 0.05 | 0.00 | 39 | 1015.5 |
| 20260503223001 | 16 | 360 | 0.0 | 16.1 | 0.00 | 0.05 | 0.00 | 39 | 1015.6 |
| 20260503221603 | 16 | 360 | 0.0 | 11.3 | 0.00 | 0.05 | 0.00 | 38 | 1015.6 |
| 20260503220059 | 16 | 224 | 0.0 | 11.3 | 0.00 | 0.05 | 0.00 | 38 | 1015.9 |
| 20260503214559 | 16 | 360 | 0.0 | 11.3 | 0.00 | 0.05 | 0.00 | 36 | 1016.0 |
| 20260503213057 | 16 | 360 | 3.2 | 14.5 | 0.00 | 0.05 | 0.00 | 35 | 1016.0 |
| 20260503211556 | 16 | 360 | 3.2 | 17.7 | 0.00 | 0.05 | 0.00 | 37 | 1016.1 |
| 20260503210054 | 16 | 257 | 0.0 | 16.1 | 0.00 | 0.05 | 0.00 | 32 | 1016.3 |
| 20260503204555 | 16 | 275 | 1.6 | 16.1 | 0.00 | 0.05 | 0.00 | 30 | 1016.4 |
| 20260503203051 | 16 | 360 | 0.0 | 17.7 | 0.00 | 0.05 | 0.00 | 33 | 1016.5 |
| 20260503201551 | 16 | 360 | 1.6 | 20.9 | 0.00 | 0.05 | 0.00 | 35 | 1016.7 |
| 20260503200049 | 16 | 360 | 0.0 | 19.3 | 0.00 | 0.05 | 0.00 | 38 | 1016.9 |
| 20260503194553 | 15 | 360 | 0.0 | 17.7 | 0.00 | 0.05 | 0.00 | 41 | 1017.1 |
| 20260503193047 | 16 | 360 | 1.6 | 20.9 | 0.00 | 0.05 | 0.00 | 39 | 1017.5 |
| 20260503191546 | 16 | 360 | 0.0 | 12.9 | 0.00 | 0.05 | 0.00 | 39 | 1017.6 |
| 20260503190044 | 16 | 360 | 0.0 | 14.5 | 0.00 | 0.05 | 0.00 | 41 | 1017.8 |
| 20260503184600 | 15 | 355 | 0.0 | 11.3 | 0.00 | 0.05 | 0.00 | 41 | 1017.9 |
| 20260503183044 | 15 | 200 | 0.0 | 14.5 | 0.00 | 0.05 | 0.00 | 42 | 1018.0 |
| 20260503181540 | 15 | 360 | 0.0 | 6.4 | 0.00 | 0.05 | 0.00 | 44 | 1018.1 |
| 20260503180039 | 13 | 360 | 0.0 | 14.5 | 0.00 | 0.05 | 0.00 | 45 | 1018.4 |
| 20260503174534 | 13 | 212 | 0.0 | 17.7 | 0.00 | 0.05 | 0.00 | 47 | 1018.5 |
| 20260503173035 | 13 | 360 | 0.0 | 16.1 | 0.00 | 0.05 | 0.00 | 48 | 1018.8 |
| 20260503171537 | 12 | 360 | 1.6 | 12.9 | 0.00 | 0.05 | 0.00 | 47 | 1019.1 |
| 20260503081508 | 5 | 28 | 0.0 | 0.0 | 0.00 | 0.05 | 0.00 | 91 | 1017.5 |
| 20260503071505 | 5 | 28 | 0.0 | 0.0 | 0.00 | 0.05 | 0.00 | 90 | 1016.9 |
| 20260503054601 | 5 | 28 | 0.0 | 0.0 | 0.00 | 0.05 | 0.00 | 90 | 1016.8 |
| 20260503053053 | 6 | 28 | 0.0 | 0.0 | 0.03 | 0.05 | 0.00 | 89 | 1016.8 |
| 20260503051550 | 6 | 28 | 0.0 | 1.6 | 0.03 | 0.05 | 0.00 | 89 | 1016.7 |
| 20260503050050 | 6 | 28 | 0.0 | 0.0 | 0.03 | 0.05 | 0.00 | 89 | 1016.5 |
| 20260503044553 | 6 | 28 | 0.0 | 0.0 | 0.03 | 0.05 | 0.05 | 89 | 1016.5 |
| 20260503043050 | 6 | 28 | 0.0 | 1.6 | 0.00 | 0.03 | 0.03 | 90 | 1016.3 |
| 20260503041547 | 6 | 28 | 0.0 | 0.0 | 0.00 | 0.03 | 0.03 | 90 | 1016.4 |
| 20260503040045 | 6 | 28 | 0.0 | 0.0 | 0.00 | 0.03 | 0.03 | 89 | 1016.2 |
| 20260503034547 | 6 | 28 | 0.0 | 0.0 | 0.00 | 0.03 | 0.03 | 89 | 1016.2 |
| 20260503033043 | 6 | 28 | 0.0 | 0.0 | 0.00 | 0.03 | 0.03 | 89 | 1016.2 |
| 20260503031544 | 6 | 28 | 0.0 | 4.8 | 0.00 | 0.03 | 0.03 | 88 | 1016.2 |
| 20260503030041 | 6 | 26 | 0.0 | 0.0 | 0.00 | 0.03 | 0.03 | 88 | 1016.2 |
| 20260503024540 | 7 | 26 | 0.0 | 0.0 | 0.00 | 0.03 | 0.03 | 87 | 1015.8 |
| 20260503023043 | 7 | 26 | 0.0 | 0.0 | 0.00 | 0.03 | 0.03 | 86 | 1015.9 |
| 20260503021544 | 7 | 17 | 0.0 | 0.0 | 0.00 | 0.03 | 0.03 | 85 | 1015.8 |
| 20260503020042 | 7 | 11 | 0.0 | 1.6 | 0.03 | 0.03 | 0.03 | 84 | 1016.0 |
| 20260503014538 | 8 | 9 | 0.0 | 1.6 | 0.03 | 0.03 | 0.03 | 82 | 1015.9 |